• Processing (Info)

  • MPEC 2005-P56 : 2005 PA17

    The following Minor Planet Electronic Circular may be linked-to from your own Web pages, but must not otherwise be redistributed electronically.

    A form allowing access to any MPEC is at the bottom of this page.


    Read MPEC 2005-P55 Read MPEC 2005-P57


    M.P.E.C. 2005-P56                                Issued 2005 Aug. 15, 14:49 UT
    
         The Minor Planet Electronic Circulars contain information on unusual
             minor planets and routine data on comets.  They are published
       on behalf of Commission 20 of the International Astronomical Union by the
              Minor Planet Center, Smithsonian Astrophysical Observatory,
                              Cambridge, MA 02138, U.S.A.
    
                      Supported in part by the Brinson Foundation
                 Prepared using the Tamkin Foundation Computer Network
    
                                  MPC@CFA.HARVARD.EDU
              URL http://cfa-www.harvard.edu/iau/mpc.html  ISSN 1523-6714
    
                                       2005 PA17
    
    Observations:
         K05P17A* C2005 08 12.60472 20 21 46.22 -28 56 15.4          18.9 V EP056E12
         K05P17A  C2005 08 12.61429 20 21 50.00 -28 56 53.0          19.1 V EP056E12
         K05P17A  C2005 08 12.62360 20 21 53.60 -28 57 29.6          19.1 V EP056E12
         K05P17A  C2005 08 12.63311 20 21 57.34 -28 58 06.6          19.4 V EP056E12
         K05P17A  C2005 08 12.70754 20 22 27.58 -29 02 52.0          18.7 V EP056E12
         K05P17A  C2005 08 12.72377 20 22 34.39 -29 03 53.3          19.1 V EP056E12
         K05P17A  C2005 08 12.74036 20 22 41.55 -29 04 56.3          19.3 V EP056E12
         K05P17A  C2005 08 12.75740 20 22 48.97 -29 06 00.4          20.4 V EP056E12
         K05P17A  C2005 08 13.47159 20 28 47.92 -29 58 09.8          18.9 V EP056E12
         K05P17A  C2005 08 13.49193 20 28 57.32 -29 59 44.8          19.1 V EP056E12
         K05P17A  C2005 08 13.50215 20 29 02.11 -30 00 33.4          19.1 V EP056E12
         K05P17A  C2005 08 13.70551 20 30 39.31 -30 15 41.9          18.4 V EP056E12
         K05P17A  C2005 08 13.70788 20 30 40.53 -30 15 51.1          18.7 V EP056E12
         K05P17A  C2005 08 13.71028 20 30 41.76 -30 16 01.5          18.7 V EP056E12
         K05P17A  C2005 08 13.71267 20 30 43.05 -30 16 12.0          19.4 V EP056E12
         K05P17A  C2005 08 13.71496 20 30 44.17 -30 16 22.4          18.9 V EP056E12
         K05P17A  C2005 08 14.08099 20 34 19.27 -30 46 33.7          18.4 R EP056I77
         K05P17A  C2005 08 14.08730 20 34 22.48 -30 47 05.1          18.6 R EP056I77
         K05P17A  C2005 08 14.09686 20 34 27.52 -30 47 52.1          18.8 R EP056I77
         K05P17A  C2005 08 15.09057 20 45 15.66 -32 14 22.1          19.2 R EP056I77
         K05P17A  C2005 08 15.09596 20 45 19.10 -32 14 50.4          19.0 R EP056I77
         K05P17A  C2005 08 15.46676 20 50 05.25 -32 49 14.4          18.2 V EP056E12
         K05P17A  C2005 08 15.46729 20 50 05.62 -32 49 17.2                 EP056E12
         K05P17A  C2005 08 15.46781 20 50 06.00 -32 49 20.6                 EP056E12
         K05P17A  C2005 08 15.46834 20 50 06.36 -32 49 23.4          19.0 V EP056E12
         K05P17A  C2005 08 15.47018 20 50 07.72 -32 49 34.5          18.3 V EP056E12
         K05P17A  C2005 08 15.47715 20 50 12.73 -32 50 18.1          18.5 V EP056E12
         K05P17A  C2005 08 15.48424 20 50 17.88 -32 51 00.1          18.4 V EP056E12
         K05P17A  C2005 08 15.49138 20 50 22.99 -32 51 43.2          18.4 V EP056E12
    
    Observer details:
    E12 Siding Spring Survey.  Observers G. J. Garradd, R. H. McNaught.  Measurers
        E. C. Beshore, C. M. Casey, E. J. Christensen, G. J. Garradd, A. D. Grauer,
        R. E. Hill, S. M. Larson, R. H. McNaught.  0.5-m Uppsala Schmidt + CCD.
    I77 CEAMIG-REA Observatory, Belo Horizonte.  Observers C. Jacques, E. Pimentel.
        Measurer C. Jacques.  0.30-m f/3.0 Schmidt-Cassegrain + CCD.
    
    Orbital elements:
    2005 PA17
    Epoch 2005 Aug. 18.0 TT = JDT 2453600.5                 MPC
    M 352.35516              (2000.0)            P               Q
    n   0.27946973     Peri.  231.35871     +0.99865329     +0.03715066
    a   2.3169298      Node   126.48301     -0.02099132     +0.92767299
    e   0.5743441      Incl.    2.58148     -0.04744443     +0.37154091
    P   3.53           H   24.0           G   0.15           U   6
    Residuals in seconds of arc
    050812 E12  0.5-  0.2+    050813 E12  0.7+  0.6-    050815 I77  0.3-  1.0+
    050812 E12  0.2+  0.1+    050813 E12  0.1-  0.7-    050815 E12  0.2+  0.2-
    050812 E12  0.3-  0.2-    050813 E12  0.0   0.3+    050815 E12  0.0   0.2+
    050812 E12  0.3-  0.2-    050813 E12  0.1+  0.3+    050815 E12  0.1+  0.1-
    050812 E12  0.2+  0.1-    050813 E12  1.0+  0.1+    050815 E12  0.2-  0.4+
    050812 E12  0.3-  0.1+    050813 E12  0.3+  0.4-    050815 E12  0.2+  0.4+
    050812 E12  0.4+  0.1-    050814 I77  0.7-  0.5+    050815 E12  0.1-  0.9-
    050812 E12  0.4+  0.3+    050814 I77  1.2-  0.0     050815 E12  0.3+  0.0
    050813 E12  0.5+  0.2+    050814 I77  0.3+  0.4-    050815 E12  0.2-  0.1-
    050813 E12  0.0   0.4+    050815 I77  0.2+  0.6-
    
    Ephemeris:
    2005 PA17                a,e,i = 2.32, 0.57, 3                   q = 0.9862
    Date    TT    R. A. (2000) Decl.     Delta      r     Elong.  Phase     V
    2005 08 08    19 58.48   -24 56.7    0.0883   1.098   160.8    17.7    19.9
    2005 08 10    20 06.52   -26 25.4    0.0777   1.087   159.9    18.7    19.6
    2005 08 12    20 17.63   -28 17.0    0.0675   1.077   159.2    19.5    19.3
    2005 08 14    20 33.53   -30 39.5    0.0576   1.067   158.6    20.3    19.0
    2005 08 16    20 57.38   -33 42.6    0.0482   1.057   157.7    21.3    18.6
    2005 08 18    21 35.24   -37 30.8    0.0397   1.048   155.4    23.7    18.2
    2005 08 20    22 38.15   -41 30.2    0.0325   1.040   149.6    29.5    17.9
    2005 08 22    00 17.04   -42 57.3    0.0278   1.032   137.7    41.3    17.9
    2005 08 24    02 11.52   -37 37.4    0.0268   1.025   120.5    58.2    18.3
    2005 08 26    03 37.99   -27 28.6    0.0297   1.018   103.8    74.5    19.0
    2005 08 28    04 31.09   -18 05.6    0.0357   1.012    91.9    86.1    19.8
    2005 08 30    05 03.80   -11 12.8    0.0433   1.006    84.5    93.1    20.5
    2005 09 01    05 25.26   -06 22.7    0.0520   1.002    80.0    97.0    21.1
    2005 09 03    05 40.28   -02 55.0    0.0611   0.997    77.5    99.1    21.5
    2005 09 05    05 51.38   -00 21.4    0.0706   0.994    76.1    99.9    21.9
    2005 09 07    05 59.95   +01 36.0    0.0802   0.991    75.6    99.9    22.1
    
    Kyle E. Smalley              (C) Copyright 2005 MPC           M.P.E.C. 2005-P56
    

    Read MPEC 2005-P55 Read MPEC 2005-P57


    MPEC number:

    Enter an MPEC number in one of the following forms:

    • 1997-B01 (the full form)
    • J97B01 (the packed version of the full form)
    • B01 (the abbreviated form)